Wind_Speed
26 25 22 18 19 18 18 20 14 13 14 13 15 14 13 15 16 20 17 18 21 23 19 18 18 17 19 19 18 18 17 17 15 15 16 18 16 18 17 18 17 18 20 20 19 18 18 18 18
24 20 19 16 22 13 16 13 13 12 12 15 17 17 16 16 20 19 18 17 18 20 18 18 17 16 16 17 17 16 15 16 15 16 17 17 17 16 14 16 17 16 21 22 19 17 16 16 15
21 19 21 19 15 16 13 11 9 11 16 15 14 16 17 17 17 18 16 13 17 18 16 15 14 15 15 15 13 16 14 14 15 16 15 17 17 16 15 17 18 15 19 22 20 18 17 16 14
25 27 30 18 19 22 17 12 9 12 13 15 14 12 16 16 15 16 14 15 14 13 13 13 13 12 13 13 12 13 14 14 14 14 15 15 15 15 14 17 18 16 18 21 22 20 19 18 18
23 32 24 17 17 22 21 19 13 9 11 12 14 10 11 14 15 14 15 15 15 15 11 9 12 12 12 11 12 12 13 11 11 13 13 14 13 15 13 13 14 16 19 21 21 21 18 16 17
28 26 18 18 22 22 21 20 16 13 8 9 12 11 9 9 12 12 14 15 14 16 13 11 11 11 11 12 12 11 12 10 9 10 12 13 11 13 12 13 13 15 17 18 18 19 19 14 15
26 20 14 18 21 22 23 20 18 16 13 9 9 9 9 10 13 9 11 12 13 12 13 10 10 11 11 12 11 10 9 9 10 10 10 9 8 12 12 13 11 13 14 14 15 14 15 16 15
18 26 20 22 18 21 24 20 19 19 15 13 9 5 6 7 12 13 9 11 11 12 13 12 11 9 11 11 10 9 7 7 9 8 7 6 6 9 10 10 10 12 11 11 11 12 14 17 15
17 20 17 26 21 17 17 16 19 23 23 17 12 9 5 6 8 10 10 9 9 11 11 12 12 10 10 10 10 9 8 7 8 6 5 5 5 8 9 9 11 13 14 12 15 15 14 14 17
18 19 18 21 21 16 20 19 21 24 22 20 14 11 9 5 4 6 12 9 6 8 10 10 10 10 9 9 8 6 6 7 8 5 6 5 4 7 8 10 10 11 10 12 14 14 12 11 19
18 13 13 21 22 15 16 21 26 27 21 20 19 12 9 7 6 4 4 10 11 9 8 10 10 8 7 6 5 2 5 6 3 6 7 2 4 7 7 9 9 11 12 12 13 10 11 17 18
19 9 5 9 1 13 19 20 24 21 21 20 18 17 12 9 7 6 3 3 5 11 14 11 10 8 5 2 2 2 3 4 2 6 3 5 7 6 8 8 9 10 12 13 12 13 14 9 14
22 20 5 0 4 4 8 12 12 17 21 22 20 16 16 14 9 6 3 3 1 3 6 7 6 4 4 2 0 3 2 1 1 1 1 5 6 5 6 8 9 10 9 9 11 13 12 10 10
18 21 25 14 4 14 10 8 14 12 19 22 24 21 15 16 15 11 7 4 3 2 3 7 7 8 5 3 2 1 5 2 2 2 1 2 3 3 4 6 7 9 8 7 9 12 11 10 9
7 15 16 13 15 14 12 12 12 11 17 20 23 24 17 16 16 19 16 9 7 5 1 5 3 2 2 3 1 2 1 3 5 3 3 3 3 5 6 7 8 8 9 9 11 10 10 11 10
6 12 20 9 13 11 11 12 9 9 13 18 20 22 22 18 18 17 18 15 11 8 4 3 4 1 2 3 2 1 2 5 5 4 5 6 5 5 5 7 9 8 9 10 10 11 11 10 8
8 16 12 8 13 14 8 10 16 9 8 15 18 19 21 22 18 16 15 15 14 9 6 3 4 2 1 2 2 1 1 1 4 6 6 7 6 6 5 6 7 7 6 6 6 6 6 6 5
8 17 18 10 8 3 10 16 12 11 14 19 20 17 18 20 19 16 12 12 12 12 9 5 2 6 7 5 4 3 1 1 2 3 4 7 3 5 4 6 7 6 6 5 4 3 3 3 5
16 20 17 16 8 9 8 10 9 7 12 15 18 15 15 14 16 15 12 11 10 9 11 9 5 6 8 8 5 2 2 0 1 3 7 1 5 6 7 8 8 8 7 5 3 3 2 1 2
14 18 12 21 2 7 1 15 13 19 24 18 14 18 15 7 11 14 14 11 11 8 8 9 8 7 9 7 5 4 2 3 2 2 4 3 3 7 10 11 10 8 9 7 5 4 5 2 2
12 15 26 19 27 15 2 14 19 20 21 18 5 16 10 7 12 13 14 12 11 10 7 6 7 5 6 6 6 5 4 5 2 1 2 4 4 7 4 11 10 8 6 6 7 7 7 4 5
15 9 21 8 20 11 5 8 17 13 12 23 18 19 11 6 7 10 13 12 8 9 8 6 8 6 2 1 1 4 5 4 2 2 1 8 8 6 10 16 20 10 7 7 7 7 6 4 6
9 15 14 14 24 5 1 9 13 12 14 23 15 7 11 6 5 5 8 8 7 5 7 7 8 8 5 3 3 5 4 4 2 3 5 11 13 11 10 16 13 6 7 9 8 7 6 5 6
17 24 24 22 11 12 6 12 17 11 14 20 4 7 17 13 8 8 5 8 6 2 4 4 5 6 4 5 6 4 3 5 2 5 3 10 12 7 13 18 18 10 13 12 10 9 7 6 5
20 18 18 22 8 1 14 18 28 3 2 4 10 12 23 18 11 11 12 8 7 3 3 4 3 1 0 3 4 3 2 5 5 3 2 4 4 11 14 19 23 20 15 16 14 10 8 7 7
17 16 15 11 4 15 19 14 21 8 15 13 17 19 22 13 13 12 15 8 4 4 3 3 6 5 4 4 4 4 2 2 2 3 4 2 4 12 16 21 26 27 10 13 15 9 8 9 8
16 12 13 13 14 17 21 10 8 8 19 16 17 13 16 14 14 13 14 6 2 2 2 1 5 10 8 6 6 4 5 4 2 5 5 3 6 15 17 22 26 28 20 4 9 9 8 9 10
20 13 8 23 20 10 12 11 9 14 16 17 16 15 13 12 13 15 10 6 2 2 4 4 4 13 11 7 6 5 5 7 7 6 6 7 11 13 16 19 21 23 22 17 5 7 10 12 13
21 22 17 12 10 6 17 17 13 17 19 22 24 25 15 14 15 9 7 6 2 3 2 4 5 10 14 9 6 5 7 7 7 5 6 8 8 10 13 16 18 20 18 16 14 12 11 12 14
25 26 18 16 13 17 18 19 10 13 19 24 24 22 16 15 10 3 7 10 13 8 6 1 2 6 14 12 10 9 8 5 3 5 7 7 6 7 11 14 16 17 18 17 15 14 12 12 14
Wind_Direction
66 62 64 58 63 90 82 66 64 58 55 70 69 75 98 110 93 100 94 107 106 113 115 110 110 110 111 112 115 115 116 115 107 110 102 95 87 82 77 74 64 59 65 60 63 59 59 56 51
69 66 65 52 55 93 84 81 65 67 69 68 81 88 97 105 114 113 100 106 107 109 114 114 114 113 109 111 114 116 117 111 112 108 99 95 88 82 80 78 68 58 61 56 59 61 59 61 56
72 63 59 52 53 70 86 89 72 56 83 72 74 83 96 107 115 122 118 122 99 105 113 110 114 115 113 109 111 119 116 113 112 103 101 98 94 88 80 77 71 60 56 54 52 56 53 56 57
75 66 48 37 51 61 71 65 75 75 69 78 74 81 97 109 115 119 122 116 126 112 104 115 116 114 112 117 125 123 123 119 111 105 99 90 93 94 88 77 74 67 57 51 50 54 52 46 44
51 59 33 30 60 47 45 53 49 66 80 83 84 75 93 103 108 115 115 112 115 118 123 116 118 121 120 118 119 124 120 117 111 108 98 92 89 94 91 73 68 64 56 52 50 49 48 42 40
72 55 36 27 44 52 52 47 48 51 69 75 82 90 86 86 103 111 113 115 121 122 123 125 124 121 125 121 121 123 119 111 109 98 85 84 82 85 75 62 52 52 52 48 47 44 48 41 39
72 87 26 37 32 44 49 55 43 49 54 69 80 85 101 115 106 111 117 122 126 125 127 125 115 123 130 115 116 114 108 113 101 82 78 77 63 63 57 49 45 50 48 45 39 40 42 30 44
37 33 24 39 35 50 52 45 55 59 49 56 79 85 94 95 106 113 133 130 124 128 127 127 117 123 117 118 111 101 97 97 87 84 76 68 50 50 46 40 32 36 34 32 30 35 38 34 27
32 15 355 33 33 51 64 56 44 57 51 58 67 78 87 102 110 116 102 113 131 128 118 122 123 121 116 112 103 97 82 64 71 64 60 49 36 36 36 25 28 30 32 32 33 37 26 32 34
339 11 17 18 26 46 62 64 58 53 47 42 47 65 67 79 97 116 133 125 135 123 122 121 117 127 127 119 101 81 64 60 70 72 57 39 26 38 41 35 39 33 33 25 24 25 14 43 24
334 2 7 1 5 13 51 52 44 44 39 48 47 46 64 70 82 110 143 144 149 147 141 133 134 138 140 154 116 69 48 50 33 59 53 47 63 49 35 37 23 32 10 8 16 14 3 19 28
293 262 178 117 153 32 91 40 36 36 39 44 39 45 46 56 68 73 91 152 171 163 167 170 158 171 180 123 34 353 33 59 24 41 35 23 56 46 21 16 4 5 360 359 6 6 30 354 22
277 290 158 301 158 157 52 43 36 52 43 40 38 32 41 46 52 75 81 80 150 211 205 184 184 193 204 214 205 30 330 353 26 149 12 14 16 31 23 2 3 11 1 357 2 10 9 17 13
285 292 308 12 340 24 67 30 35 44 50 38 33 28 41 46 46 49 56 34 6 20 239 228 214 219 219 254 82 343 2 352 29 54 38 25 359 356 15 356 359 351 359 11 359 1 359 1 360
276 300 309 25 21 22 38 65 41 65 59 45 33 30 36 46 47 49 50 41 27 338 336 309 272 261 268 268 291 204 328 47 56 60 64 53 25 5 357 348 342 333 338 333 331 335 342 349 346
267 279 302 94 46 62 60 60 37 73 53 56 40 34 35 32 35 46 46 37 25 16 345 346 338 323 270 276 291 303 46 11 20 30 23 7 355 342 322 317 315 317 323 314 327 334 340 338 347
243 277 275 46 62 34 67 37 25 15 33 41 34 39 36 31 25 27 35 41 34 33 23 67 313 330 359 318 321 66 80 315 343 14 1 334 352 330 315 325 321 320 328 323 321 339 346 346 352
270 290 1 354 202 291 13 357 8 7 23 31 24 27 42 36 23 19 19 32 35 36 40 52 51 79 81 96 48 39 29 23 39 225 327 245 18 342 342 1 342 338 335 338 331 351 347 6 10
293 342 330 342 295 43 46 335 306 137 12 32 21 18 33 42 27 23 21 25 27 43 52 53 76 77 85 86 85 55 19 78 181 202 227 203 79 338 358 358 340 334 342 330 324 321 301 315 11
281 282 302 311 202 168 121 280 2 7 1 345 53 37 26 46 48 39 43 37 32 44 57 61 70 102 109 112 115 110 105 43 48 214 242 92 4 338 2 353 332 328 328 328 326 307 309 280 310
175 287 286 340 327 19 77 296 344 351 342 330 60 31 31 45 70 45 50 55 41 45 50 64 78 88 116 128 129 118 99 97 123 125 95 314 331 360 17 356 313 295 294 309 315 307 297 264 302
171 160 293 292 276 306 293 326 335 330 271 304 3 64 72 87 95 70 24 60 65 52 55 63 63 51 26 100 135 133 138 128 161 194 263 285 292 312 329 312 314 248 268 284 291 296 285 266 307
233 168 266 268 281 52 290 309 310 259 302 318 357 350 36 348 23 87 35 18 52 76 71 75 66 57 31 356 280 248 200 203 196 225 300 293 286 310 316 344 346 238 252 248 260 279 283 281 329
225 201 219 212 261 278 306 264 271 287 325 328 353 337 331 346 307 327 349 347 16 89 112 101 89 62 34 11 351 329 261 254 243 219 245 254 298 321 355 1 5 308 263 248 239 250 262 276 313
233 239 231 218 192 96 277 270 309 178 108 310 319 316 305 307 297 304 314 335 334 333 159 186 169 128 39 334 338 330 77 140 160 212 256 275 315 357 13 16 7 352 272 244 230 237 249 262 288
238 235 229 199 206 261 282 301 317 305 301 261 253 264 281 280 295 299 305 314 293 261 162 194 196 202 231 280 288 278 306 207 256 313 319 332 307 4 13 11 11 12 351 240 216 229 252 255 261
226 209 185 206 221 254 303 302 296 231 247 263 285 289 197 210 278 284 291 270 233 15 15 7 205 201 205 243 273 244 263 286 329 360 10 100 4 19 18 23 20 18 16 319 225 240 257 274 272
218 181 221 206 219 215 261 260 226 248 233 273 288 295 249 244 262 271 264 236 201 6 1 340 261 201 197 215 233 255 286 296 299 314 14 24 19 21 22 22 19 26 27 28 350 289 293 294 291
217 198 185 152 189 259 279 281 283 280 267 270 279 306 300 284 234 283 286 284 243 241 1 352 319 207 201 217 231 256 280 301 319 306 332 338 349 357 6 7 8 15 27 28 25 20 2 343 326
194 206 183 197 216 244 276 298 273 267 253 264 277 315 315 260 343 1 331 324 328 331 3 16 352 234 210 227 233 243 257 264 284 283 275 306 313 321 338 351 354 3 10 20 19 7 351 348 341
Height
5911 5909 5907 5905 5904 5898 5897 5898 5899 5898 5899 5898 5901 5900 5900 5900 5900 5905 5903 5904 5904 5905 5907 5908 5910 5911 5912 5913 5915 5916 5918 5919 5921 5921 5921 5918 5921 5921 5923 5921 5923 5921 5918 5918 5918 5915 5915 5914 5913
5915 5916 5914 5908 5904 5902 5899 5899 5901 5901 5900 5902 5902 5902 5903 5903 5903 5904 5907 5909 5908 5907 5910 5912 5914 5916 5917 5917 5918 5921 5923 5922 5924 5924 5923 5923 5923 5924 5926 5924 5924 5926 5921 5920 5920 5919 5918 5916 5914
5914 5914 5916 5911 5909 5904 5902 5902 5902 5901 5902 5903 5904 5904 5906 5907 5907 5907 5909 5910 5910 5911 5914 5915 5918 5919 5920 5920 5922 5924 5925 5926 5926 5926 5927 5925 5924 5925 5928 5926 5925 5928 5924 5922 5922 5921 5920 5919 5917
5914 5912 5912 5915 5912 5907 5905 5904 5903 5904 5906 5906 5907 5908 5908 5909 5910 5911 5911 5912 5913 5913 5915 5918 5920 5921 5920 5922 5925 5926 5926 5928 5928 5929 5928 5928 5928 5927 5931 5929 5928 5930 5928 5925 5924 5924 5923 5921 5921
5914 5911 5915 5921 5916 5911 5907 5906 5906 5906 5907 5908 5909 5910 5910 5910 5911 5913 5913 5914 5915 5917 5919 5921 5921 5922 5923 5926 5927 5928 5928 5931 5931 5930 5929 5930 5931 5930 5932 5932 5931 5931 5930 5929 5927 5926 5925 5923 5923
5922 5920 5925 5923 5919 5915 5912 5910 5910 5909 5909 5910 5910 5911 5913 5911 5913 5915 5915 5915 5917 5919 5921 5923 5923 5924 5926 5926 5928 5930 5930 5933 5934 5932 5931 5931 5933 5932 5933 5932 5932 5931 5932 5932 5930 5927 5926 5924 5924
5923 5922 5927 5927 5922 5916 5914 5914 5913 5912 5912 5913 5913 5913 5914 5916 5917 5916 5917 5917 5919 5920 5921 5924 5924 5926 5929 5927 5930 5931 5932 5934 5934 5934 5934 5934 5936 5933 5934 5934 5933 5932 5931 5931 5930 5929 5927 5925 5925
5936 5931 5931 5929 5925 5920 5917 5916 5916 5916 5914 5914 5915 5914 5915 5914 5918 5919 5920 5920 5920 5922 5922 5925 5924 5928 5928 5929 5931 5931 5934 5935 5934 5935 5936 5937 5937 5936 5935 5933 5933 5933 5933 5931 5929 5928 5929 5927 5925
5937 5935 5932 5930 5926 5923 5921 5921 5921 5916 5916 5917 5916 5917 5916 5916 5917 5918 5920 5923 5924 5923 5923 5925 5927 5930 5930 5931 5932 5934 5934 5935 5934 5937 5936 5937 5938 5937 5934 5936 5937 5935 5934 5933 5934 5931 5929 5930 5926
5940 5936 5932 5929 5928 5926 5926 5929 5923 5920 5919 5919 5918 5918 5918 5918 5917 5920 5921 5923 5924 5924 5926 5927 5929 5931 5932 5932 5932 5934 5935 5936 5935 5937 5937 5936 5938 5936 5933 5937 5937 5936 5934 5934 5935 5933 5926 5926 5927
5937 5938 5939 5936 5933 5928 5929 5925 5922 5921 5925 5923 5922 5921 5920 5920 5920 5921 5922 5924 5926 5927 5927 5929 5932 5933 5933 5935 5936 5936 5935 5935 5937 5937 5936 5937 5937 5936 5934 5937 5937 5936 5934 5934 5934 5930 5927 5929 5926
5943 5931 5936 5931 5937 5935 5900 5924 5923 5925 5927 5926 5925 5923 5923 5922 5922 5922 5922 5924 5925 5928 5930 5932 5933 5933 5934 5934 5935 5937 5937 5936 5937 5936 5937 5938 5938 5936 5934 5937 5937 5936 5935 5933 5933 5930 5931 5930 5928
5940 5929 5926 5939 5935 5933 5929 5934 5933 5930 5928 5929 5928 5927 5925 5923 5924 5925 5925 5925 5926 5928 5927 5928 5930 5931 5932 5934 5936 5936 5937 5938 5937 5938 5937 5935 5936 5937 5937 5936 5937 5936 5936 5934 5933 5932 5931 5931 5931
5938 5938 5937 5944 5937 5932 5933 5937 5935 5934 5931 5931 5930 5929 5927 5926 5925 5924 5925 5926 5926 5928 5930 5930 5931 5932 5933 5933 5935 5935 5937 5936 5936 5935 5935 5936 5937 5938 5938 5937 5936 5936 5936 5934 5932 5932 5934 5934 5932
5941 5938 5938 5941 5939 5940 5937 5939 5937 5937 5933 5933 5932 5931 5929 5927 5926 5925 5926 5927 5927 5927 5930 5929 5930 5931 5931 5932 5935 5936 5935 5935 5934 5935 5936 5936 5935 5935 5936 5936 5935 5934 5934 5933 5932 5932 5931 5932 5931
5937 5940 5932 5937 5938 5939 5940 5939 5939 5937 5937 5935 5934 5932 5930 5927 5927 5926 5927 5928 5927 5926 5926 5929 5930 5930 5930 5931 5933 5933 5933 5934 5934 5935 5936 5936 5937 5934 5933 5934 5933 5932 5932 5932 5931 5930 5930 5930 5929
5938 5940 5937 5935 5933 5938 5940 5942 5942 5942 5940 5938 5935 5934 5931 5929 5929 5928 5928 5929 5929 5928 5928 5929 5929 5930 5930 5931 5932 5932 5933 5934 5935 5935 5936 5936 5935 5936 5933 5932 5932 5931 5930 5929 5929 5929 5929 5929 5928
5935 5935 5934 5940 5936 5932 5939 5944 5942 5946 5943 5939 5936 5936 5933 5932 5932 5930 5931 5930 5930 5930 5929 5929 5930 5931 5930 5930 5931 5932 5931 5933 5934 5928 5934 5933 5935 5935 5934 5933 5932 5931 5930 5929 5928 5927 5928 5928 5927
5931 5934 5935 5939 5937 5937 5935 5938 5939 5936 5940 5936 5937 5936 5934 5934 5935 5934 5933 5932 5932 5931 5930 5930 5930 5930 5930 5930 5930 5931 5932 5932 5934 5933 5934 5936 5935 5937 5934 5932 5931 5932 5931 5929 5928 5928 5927 5926 5926
5931 5934 5933 5938 5934 5935 5935 5936 5940 5936 5930 5936 5937 5936 5935 5935 5936 5936 5935 5933 5933 5932 5931 5930 5930 5930 5929 5929 5929 5930 5931 5934 5934 5934 5933 5933 5935 5936 5934 5933 5932 5930 5931 5930 5929 5929 5928 5926 5925
5934 5932 5929 5934 5935 5938 5939 5934 5934 5930 5931 5933 5935 5933 5934 5935 5935 5935 5936 5935 5933 5932 5932 5931 5931 5931 5929 5929 5929 5930 5931 5933 5933 5935 5935 5935 5934 5933 5932 5931 5930 5928 5929 5929 5929 5928 5927 5926 5925
5931 5935 5930 5935 5937 5938 5937 5936 5931 5935 5937 5933 5935 5931 5934 5935 5934 5934 5934 5936 5934 5933 5933 5932 5932 5931 5930 5929 5929 5929 5930 5933 5934 5935 5935 5935 5935 5932 5931 5928 5925 5924 5925 5926 5926 5926 5926 5925 5924
5930 5933 5934 5934 5933 5934 5937 5936 5937 5936 5936 5928 5928 5930 5934 5936 5934 5936 5935 5935 5935 5933 5932 5933 5933 5932 5931 5929 5928 5928 5931 5931 5934 5934 5935 5936 5935 5932 5929 5927 5922 5921 5922 5924 5924 5925 5925 5925 5924
5924 5926 5928 5932 5933 5934 5935 5932 5928 5934 5931 5926 5926 5929 5930 5934 5935 5935 5936 5935 5935 5933 5932 5933 5933 5933 5931 5930 5929 5928 5929 5930 5932 5933 5934 5933 5935 5932 5927 5924 5921 5918 5918 5921 5922 5923 5924 5924 5923
5919 5922 5924 5929 5930 5934 5933 5933 5933 5929 5929 5928 5930 5931 5930 5932 5934 5934 5934 5934 5932 5932 5931 5932 5933 5932 5931 5929 5928 5928 5929 5930 5931 5931 5933 5934 5933 5931 5927 5923 5920 5914 5914 5916 5919 5921 5922 5922 5922
5916 5919 5922 5924 5928 5931 5932 5932 5930 5928 5933 5934 5936 5936 5936 5933 5933 5934 5933 5933 5932 5929 5930 5930 5931 5931 5930 5929 5928 5928 5929 5929 5930 5930 5930 5930 5933 5929 5925 5922 5918 5913 5910 5913 5916 5919 5920 5920 5920
5912 5914 5920 5921 5924 5928 5926 5927 5929 5930 5928 5928 5929 5930 5928 5931 5933 5933 5933 5932 5930 5929 5929 5929 5928 5929 5929 5928 5927 5927 5928 5929 5929 5930 5929 5930 5929 5925 5924 5922 5920 5917 5914 5913 5916 5918 5919 5920 5919
5908 5913 5918 5918 5921 5927 5926 5926 5926 5925 5927 5927 5925 5927 5929 5930 5931 5933 5932 5930 5929 5928 5929 5927 5926 5927 5927 5926 5926 5928 5928 5928 5927 5927 5928 5927 5925 5925 5925 5923 5922 5919 5918 5916 5917 5918 5919 5919 5919
5907 5908 5912 5917 5923 5925 5924 5926 5927 5925 5926 5923 5920 5924 5927 5922 5925 5929 5929 5927 5928 5928 5927 5926 5924 5925 5926 5927 5927 5927 5927 5926 5925 5925 5925 5925 5925 5924 5923 5923 5922 5920 5919 5917 5917 5917 5917 5916 5915
5902 5907 5912 5916 5920 5924 5922 5923 5921 5923 5923 5919 5919 5921 5922 5924 5921 5925 5925 5923 5920 5923 5925 5925 5924 5924 5926 5926 5927 5926 5925 5924 5923 5922 5921 5921 5921 5921 5921 5921 5921 5919 5918 5917 5915 5914 5913 5912 5911